User: anonymous   Login
Location: ?
(35.4214°N, 139.3011°E)
Time: 11:54:54
(UTC+00:00)
Language:

Cosmos 158 Rocket - Orbit

View from above orbital plane
View from above orbital plane
View from above satellite
View from above satellite

Ground track
Ground track

The orbit data is extracted from the following two-line orbital elements,

1  2802U 67045B   20262.84916935 +.00000079 +00000-0 +30863-4 0  9991
2  2802 074.0107 111.8225 0067420 240.5865 118.8551 14.43774745800667
Epoch (UTC): 18 September 2020 20:22:48
Eccentricity: 0.0067420
inclination: 74.0107°
perigee height: 698 km
apogee height: 794 km
right ascension of ascending node: 111.8225°
argument of perigee: 240.5865°
revolutions per day: 14.43774745
mean anomaly at epoch: 118.8551°
orbit number at epoch: 80066

The dashed part of the orbit path shows where the satellite is in the earth's shadow,  

DLR